STARLINK-11307 [DTC] (61210 NORAD) Tracking and Keplerian Element Data

This shows tracking and keplerian element data for the satellite.

Feedback or suggestion? Click here.




ElementValue
Catalog61210
NameSTARLINK-11307 [DTC]
Epoch Orbit382
Epoch Day286.73216381
Epoch Year2024
RAAN185.6471
Inclination53.1587
Eccentricity0.0001354
Argument of Perigee99.3065
Mean Anonmoly260.8109
Mean Motion15.76751719
Decay Rate0.00014122
L11 61210U 24171L 24286.73216381 .00014122 00000+0 90047-4 0 9991
L22 61210 53.1587 185.6471 0001354 99.3065 260.8109 15.76751719 3826



Live tracking and technical data element details for STARLINK-11307 [DTC] (NORAD 61210). STARLINK-11307 [DTC] can be tracked NOW for your location showing map with azimuth and elevation plus other details from your city location.







IsCatalogInMostPopularTable: catalog: 61210, numindb: 25
Update: records affected: 1



GetName: 61210 STARLINK-11307 [DTC]

Hit Count: updated at: Wed, 04 Dec 2024 08:35:46 GMT